Location: Chandrammap?lem
(16.9200°N, 81.0051°E)
Time: 02:45:16
(UTC+00:00)

Meteor PRIRODA - Pass Details

Date: 29 May 2024
Orbit: 439 x 454 km, 97.5° (Epoch: 21 June)

Event Time Altitude Azimuth Distance (km) Brightness Sun altitude
Exits shadow 13:55:35 - 174° (S) 2,118 6.5 -11.7°
Reaches altitude 10° 13:56:50 10° 176° (S) 1,587 5.9 -12.0°
Maximum altitude 14:00:12 66° 259° (W) 496 3.7 -12.7°
Drops below altitude 10° 14:03:35 10° 342° (NNW) 1,582 6.8 -13.4°
Sets 14:05:37 0° 345° (NNW) 2,452 7.8 -13.9°
